Faktúry

  XML   CSV
Rozšírené vyhľadávanie

Rozšírené vyhľadávanie

Číslo Názov Obstarávateľ IČO Obs. Dodávateľ IČO Dod. Kategória Suma Dátum Dátum účinnosti Dátum platnosti Dátum zverejnenia Dokument podpísal Funkca Typ
DFZH307/21 služby pracovnej zdravotne služby za obdobie 12/2021 Krajská hvezdáreň a planetárium M. Hella 35987405 PZS-ANIMA 44748060 36,00 € 31.12.2021 27.01.2022 Dana Jasenská Faktúra
DFZH306/21 BOZP BB Krajská hvezdáreň a planetárium M. Hella 35987405 BBPO-BOZ Banská Bystrica 44503393 126,00 € 31.12.2021 27.01.2022 Dana Jasenská Faktúra
DFZH001/22 BOZPO ZH Krajská hvezdáreň a planetárium M. Hella 35987405 Mgr. Ján Lečko - Servis HP 50095188 81,60 € 31.12.2021 27.01.2022 Dana Jasenská Faktúra
DFZH311/21 oprava výťahu Krajská hvezdáreň a planetárium M. Hella 35987405 All in Concept Slowakei s.r.o. 51462176 111,00 € 31.12.2021 07.02.2022 Dana Jasenská Faktúra
DFZH310/21 oprava výťahu Krajská hvezdáreň a planetárium M. Hella 35987405 All in Concept Slowakei s.r.o. 51462176 447,00 € 31.12.2021 07.02.2022 Dana Jasenská Faktúra
DFZH316/21 EE BB, ZH - preplatok Krajská hvezdáreň a planetárium M. Hella 35987405 Magna energia a.s. 35743565 -291,12 € 31.12.2021 10.02.2022 Dana Jasenská Faktúra
DFZH315/21 EE BB, ZH - preplatok Krajská hvezdáreň a planetárium M. Hella 35987405 Magna energia a.s. 35743565 -96,39 € 31.12.2021 10.02.2022 Dana Jasenská Faktúra
DFZH317/21 ASUS ZenBook UX425EA Krajská hvezdáreň a planetárium M. Hella 35987405 Kread-PC Žiar nad Hronom 47858362 614,00 € 30.12.2021 07.02.2022 Dana Jasenská Faktúra
DFZH314/21 IT komponenty Krajská hvezdáreň a planetárium M. Hella 35987405 Kread-PC Žiar nad Hronom 47858362 145,00 € 30.12.2021 07.02.2022 Dana Jasenská Faktúra
DFZH313/21 Tlačiarne Krajská hvezdáreň a planetárium M. Hella 35987405 Kread-PC Žiar nad Hronom 47858362 470,00 € 30.12.2021 07.02.2022 Dana Jasenská Faktúra
DFZH312/21 Acer LCD VG270 27" FHD IPS 1ms Krajská hvezdáreň a planetárium M. Hella 35987405 Kread-PC Žiar nad Hronom 47858362 472,50 € 30.12.2021 07.02.2022 Dana Jasenská Faktúra
DFZH305/21 tlač veľkoformátovej grafiky Krajská hvezdáreň a planetárium M. Hella 35987405 Mecum s.r.o. Žiar nad Hronom 46258701 1 650,00 € 21.12.2021 23.12.2021 Dana Jasenská Faktúra
DFZH304/21 výroba a osadenie informačných tabúľ Krajská hvezdáreň a planetárium M. Hella 35987405 Enterprise, spol.s.r.o. 36009768 400,00 € 17.12.2021 22.12.2021 Dana Jasenská Faktúra
DFZH303/21 opakovaná kontrola komína a dymovodu Krajská hvezdáreň a planetárium M. Hella 35987405 KOM system s.r.o. 51429641 90,00 € 15.12.2021 22.12.2021 Dana Jasenská Faktúra
DFZH299/21 teplo, voda, EE, zrážky, služby Krajská hvezdáreň a planetárium M. Hella 35987405 Divadlo Štúdio tanca 35989611 191,09 € 14.12.2021 16.12.2021 Dana Jasenská Faktúra
DFZH302/21 oprava auta BB Krajská hvezdáreň a planetárium M. Hella 35987405 Motor-Car, Banská Bystrica 36643947 510,47 € 14.12.2021 20.12.2021 Dana Jasenská Faktúra
DFZH300/21 Digitálny bezdrôtový zvonček Delight Kinetic 55343BK Krajská hvezdáreň a planetárium M. Hella 35987405 ECO PRODUCT s.r.o. 45502471 27,40 € 11.12.2021 15.12.2021 Dana Jasenská Faktúra
DFZH297/21 Exponát č. diera, Interakt. model Astr.pexeso Krajská hvezdáreň a planetárium M. Hella 35987405 KVANT spol.s r.o. 31398294 7 152,00 € 10.12.2021 14.12.2021 Dana Jasenská Faktúra
DFZH296/21 nafukovací model Mesiaca Krajská hvezdáreň a planetárium M. Hella 35987405 Kubíček VISIONAIR spol. s.r.o. 26259052 4 404,00 € 09.12.2021 13.12.2021 Dana Jasenská Faktúra
DFZH294/21 tepelná energia Krajská hvezdáreň a planetárium M. Hella 35987405 Veolia Energia, Žiar nad Hronom 36042544 1 617,06 € 08.12.2021 10.12.2021 Dana Jasenská Faktúra
DFZH295/21 riadenie k podaniu projektu Modernizácia vybavenia sály planetária v ZH Krajská hvezdáreň a planetárium M. Hella 35987405 P&B, s.r.o. 47579161 1 500,00 € 08.12.2021 13.12.2021 Dana Jasenská Faktúra
DFZH289/21 mobil ZH,RS,BB Krajská hvezdáreň a planetárium M. Hella 35987405 O2 Slovakia, s.r.o. 35848863 5,69 € 03.12.2021 08.12.2021 Dana Jasenská Faktúra
DFZH284/21 internetové služby BB Krajská hvezdáreň a planetárium M. Hella 35987405 LIFEPC, s.r.o. 43949037 11,85 € 01.12.2021 07.12.2021 Dana Jasenská Faktúra
DFZH283/21 ochrana objektu Krajská hvezdáreň a planetárium M. Hella 35987405 KRPZ Banská Bystrica 735833 14,97 € 01.12.2021 07.12.2021 Dana Jasenská Faktúra
DFZH282/21 ochrana objektu Krajská hvezdáreň a planetárium M. Hella 35987405 KRPZ Banská Bystrica 735833 13,07 € 01.12.2021 07.12.2021 Dana Jasenská Faktúra
DFZH285/21 za plyn Krajská hvezdáreň a planetárium M. Hella 35987405 A. En. Slovensko, s.r.o. 36399604 204,00 € 01.12.2021 07.12.2021 Dana Jasenská Faktúra
DFZH287/21 EE BB, ZH Krajská hvezdáreň a planetárium M. Hella 35987405 Magna energia a.s. 35743565 771,82 € 01.12.2021 08.12.2021 Dana Jasenská Faktúra
DFZH286/21 EE ZH, RS Krajská hvezdáreň a planetárium M. Hella 35987405 Magna energia a.s. 35743565 236,01 € 01.12.2021 08.12.2021 Dana Jasenská Faktúra
DFZH288/21 telefónne hovory pevná linka, internet Krajská hvezdáreň a planetárium M. Hella 35987405 Slovak Telekom, Bratislava 35763469 105,04 € 01.12.2021 08.12.2021 Dana Jasenská Faktúra
DFZH291/21 BOZPO RS Krajská hvezdáreň a planetárium M. Hella 35987405 Agentúra Betes, Ján Hruška, Hrachovo 37305247 27,00 € 01.12.2021 09.12.2021 Dana Jasenská Faktúra
1 2 3 4 5 6 7 8 9 10 11 »